Lille, France

11:08 AM CEST on July 21, 2017 (GMT +0200)
Lesquin

Weather History for LFQQ - December, 2013

Change the Weather History Date:

Friday, December 6, 2013

  Actual Average Record
Temperature  
Mean Temperature 39 °F -  
Max Temperature 43 °F 42 °F 57 °F (2007)
Min Temperature 35 °F 34 °F 24 °F (2010)
Degree Days  
Heating Degree Days 26    
Moisture  
Dew Point 31 °F    
Average Humidity 71    
Maximum Humidity 87    
Minimum Humidity 54    
Precipitation  
Precipitation 0.00 in - - ()
Sea Level Pressure  
Sea Level Pressure 30.29 in    
Wind  
Wind Speed 12 mph ()    
Max Wind Speed 18 mph    
Max Gust Speed -    
Visibility 6.5 miles    
Events Rain    
Averages and records for this station are not official NWS values.
T = Trace of Precipitation, MM = Missing Value Source: Averaged Metar Reports

Daily Weather History Graph

Daily Weather History Graph

Search for Another Location

Airport or City:

Trip Planner

Search our weather history database for the weather conditions in past years. The results will help you decide how hot, cold, wet, or windy it might be!

Date:

Astronomy

Dec. 06, 2013 Rise Set
Actual Time 8:33 AM CET 4:43 PM CET
Civil Twilight 7:54 AM CET 5:22 PM CET
Nautical Twilight 7:13 AM CET 6:04 PM CET
Astronomical Twilight 6:33 AM CET 6:43 PM CET
Moon 11:14 AM CET (12/6) 9:13 PM CET (12/6)
Length of Visible Light 9h 27m
Length of Day
8h 10m
Waxing Crescent, 17% of the Moon is Illuminated
Dec 6
Waxing Crescent
Dec 9
First Quarter
Dec 17
Full
Dec 25
Last Quarter
Jan 1
New

Hourly Weather History & Observations

Time (CET) Temp. Windchill Dew Point Humidity Pressure Visibility Wind Dir Wind Speed Gust Speed Precip Events Conditions
12:00 AM 42.8 °F 34.8 °F 30.2 °F 61% 30.15 in - NW 17.3 mph - N/A   Clear
12:30 AM 41.0 °F 34.3 °F 32.0 °F 70% 30.18 in 6.2 mi West 11.5 mph - N/A   Scattered Clouds
1:00 AM 39 °F - 31 °F 65% 30.19 in 31 mi West 9.2 mph - -   Partly Cloudy
1:00 AM 39.2 °F 33.0 °F 32.0 °F 75% 30.18 in 6.2 mi West 9.2 mph - N/A   Scattered Clouds
1:30 AM 39.2 °F 32.5 °F 30.2 °F 70% 30.18 in 6.2 mi West 10.4 mph - N/A   Unknown
2:00 AM 39.2 °F 31.6 °F 30.2 °F 70% 30.18 in 6.2 mi WNW 12.7 mph - N/A   Unknown
2:30 AM 39.2 °F 31.6 °F 30.2 °F 70% 30.18 in 6.2 mi West 12.7 mph - N/A   Unknown
3:00 AM 39.2 °F 31.2 °F 30.2 °F 70% 30.18 in 6.2 mi WNW 13.8 mph - N/A   Unknown
3:30 AM 39.2 °F 31.6 °F 32.0 °F 75% 30.18 in 6.2 mi WNW 12.7 mph - N/A   Mostly Cloudy
4:00 AM 39 °F - 34 °F 76% 30.23 in 7 mi NW 18.4 mph - - Rain Light Rain Showers
4:00 AM 39.2 °F 29.8 °F 33.8 °F 81% 30.21 in 6.2 mi NW 18.4 mph - N/A Rain Light Rain Showers
4:30 AM 37.4 °F 29.8 °F 33.8 °F 87% 30.21 in 6.2 mi WNW 11.5 mph - N/A   Scattered Clouds
5:00 AM 37.4 °F 28.9 °F 32.0 °F 81% 30.21 in - WNW 13.8 mph - N/A   Clear
5:30 AM 37.4 °F 28.9 °F 30.2 °F 75% 30.21 in - West 13.8 mph - N/A   Clear
6:00 AM 39.2 °F 29.8 °F 28.4 °F 65% 30.21 in - NW 18.4 mph - N/A   Clear
6:30 AM 37.4 °F 29.3 °F 26.6 °F 65% 30.24 in - WNW 12.7 mph - N/A   Clear
7:00 AM 37 °F - 28 °F 58% 30.26 in 31 mi WNW 11.5 mph - -   Partly Cloudy
7:00 AM 37.4 °F 29.8 °F 28.4 °F 70% 30.24 in - WNW 11.5 mph - N/A   Clear
7:30 AM 35.6 °F 27.5 °F 28.4 °F 75% 30.24 in - WNW 11.5 mph - N/A   Clear
8:00 AM 35.6 °F 27.1 °F 28.4 °F 75% 30.24 in - WNW 12.7 mph - N/A   Clear
8:30 AM 37.4 °F 29.3 °F 28.4 °F 70% 30.27 in - WNW 12.7 mph - N/A   Clear
9:00 AM 37.4 °F 29.3 °F 28.4 °F 70% 30.27 in 6.2 mi WNW 12.7 mph - N/A   Scattered Clouds
9:30 AM 37.4 °F 29.8 °F 28.4 °F 70% 30.27 in - West 11.5 mph - N/A   Clear
10:00 AM 38 °F - 30 °F 62% 30.31 in 31 mi West 11.5 mph - -   Mostly Cloudy
10:00 AM 39.2 °F 32.0 °F 30.2 °F 70% 30.30 in 6.2 mi West 11.5 mph - N/A   Mostly Cloudy
10:30 AM 39.2 °F 32.0 °F 32.0 °F 75% 30.30 in 6.2 mi West 11.5 mph - N/A   Mostly Cloudy
11:00 AM 39.2 °F 32.0 °F 32.0 °F 75% 30.30 in 6.2 mi West 11.5 mph - N/A   Mostly Cloudy
11:30 AM 41.0 °F 33.1 °F 32.0 °F 70% 30.30 in 6.2 mi WNW 15.0 mph - N/A   Mostly Cloudy
12:00 PM 41.0 °F 32.5 °F 32.0 °F 70% 30.30 in 6.2 mi West 17.3 mph - N/A   Scattered Clouds
12:30 PM 42.8 °F 34.8 °F 32.0 °F 66% 30.30 in 6.2 mi WNW 17.3 mph - N/A   Scattered Clouds
1:00 PM 43 °F - 32 °F 54% 30.33 in 19 mi WNW 16.1 mph - -   Mostly Cloudy
1:00 PM 42.8 °F 35.1 °F 32.0 °F 66% 30.30 in 6.2 mi WNW 16.1 mph - N/A   Scattered Clouds
1:30 PM 42.8 °F 34.8 °F 30.2 °F 61% 30.30 in 6.2 mi WNW 17.3 mph - N/A   Scattered Clouds
2:00 PM 41.0 °F 33.5 °F 30.2 °F 65% 30.33 in 6.2 mi WNW 13.8 mph - N/A   Scattered Clouds
2:30 PM 41.0 °F 34.3 °F 30.2 °F 65% 30.33 in 6.2 mi WNW 11.5 mph - N/A   Mostly Cloudy
3:00 PM 41.0 °F 33.5 °F 30.2 °F 65% 30.33 in 6.2 mi WNW 13.8 mph - N/A   Scattered Clouds
3:30 PM 41.0 °F 32.8 °F 30.2 °F 65% 30.33 in 6.2 mi WNW 16.1 mph - N/A   Scattered Clouds
4:00 PM 42 °F - 31 °F 54% 30.36 in 25 mi WNW 13.8 mph - -   Mostly Cloudy
4:00 PM 41.0 °F 33.5 °F 32.0 °F 70% 30.33 in 6.2 mi WNW 13.8 mph - N/A   Mostly Cloudy
4:30 PM 41.0 °F 34.3 °F 30.2 °F 65% 30.33 in 6.2 mi WNW 11.5 mph - N/A   Mostly Cloudy
5:00 PM 41.0 °F 34.3 °F 30.2 °F 65% 30.36 in 6.2 mi WNW 11.5 mph - N/A   Mostly Cloudy
5:30 PM 41.0 °F 34.7 °F 30.2 °F 65% 30.36 in 6.2 mi WNW 10.4 mph - N/A   Mostly Cloudy
6:00 PM 41.0 °F 35.2 °F 32.0 °F 70% 30.36 in 6.2 mi WNW 9.2 mph - N/A   Mostly Cloudy
6:30 PM 41.0 °F 36.4 °F 32.0 °F 70% 30.36 in 6.2 mi West 6.9 mph - N/A   Mostly Cloudy
7:00 PM 40 °F - 32 °F 65% 30.38 in 25 mi West 6.9 mph - -   Mostly Cloudy
7:00 PM 41.0 °F 36.4 °F 32.0 °F 70% 30.36 in 6.2 mi West 6.9 mph - N/A   Mostly Cloudy
7:30 PM 41.0 °F 36.4 °F 32.0 °F 70% 30.36 in 6.2 mi West 6.9 mph - N/A   Mostly Cloudy
8:00 PM 41.0 °F 35.2 °F 32.0 °F 70% 30.36 in 6.2 mi West 9.2 mph - N/A   Mostly Cloudy
8:30 PM 41.0 °F 35.8 °F 33.8 °F 76% 30.36 in 6.2 mi West 8.1 mph - N/A   Mostly Cloudy
9:00 PM 41.0 °F 35.2 °F 33.8 °F 76% 30.36 in 6.2 mi West 9.2 mph - N/A   Mostly Cloudy
9:30 PM 41.0 °F 35.2 °F 35.6 °F 81% 30.39 in 6.2 mi West 9.2 mph - N/A   Mostly Cloudy
10:00 PM 39.2 °F 35.9 °F 35.6 °F 87% 30.39 in 6.2 mi West 4.6 mph - N/A   Mostly Cloudy
10:30 PM 39.2 °F 37.0 °F 35.6 °F 87% 30.39 in 6.2 mi WSW 3.5 mph - N/A   Mostly Cloudy
11:00 PM 39.2 °F 35.9 °F 35.6 °F 87% 30.39 in 6.2 mi SSW 4.6 mph - N/A   Mostly Cloudy
11:30 PM 39.2 °F 37.0 °F 35.6 °F 87% 30.39 in 6.2 mi South 3.5 mph - N/A   Mostly Cloudy